| time (UTC) | temp C | wind direction | speed KPH | gust KPH | rain 1hr cm | rain 24hr cm | rain mn cm | humidity % | barometer mb |
| 20260505072621 | 19 | 207 | 3.2 | 19.3 | 0.00 | 0.00 | 0.00 | 48 | 1013.5 |
| 20260505071619 | 18 | 212 | 3.2 | 11.3 | 0.00 | 0.00 | 0.00 | 49 | 1013.5 |
| 20260505070618 | 18 | 203 | 1.6 | 6.4 | 0.00 | 0.00 | 0.00 | 48 | 1013.5 |
| 20260505065615 | 18 | 209 | 3.2 | 19.3 | 0.00 | 0.00 | 0.00 | 47 | 1013.5 |
| 20260505064613 | 18 | 197 | 3.2 | 19.3 | 0.00 | 0.00 | 0.00 | 48 | 1013.4 |
| 20260505063632 | 18 | 221 | 1.6 | 17.7 | 0.00 | 0.00 | 0.00 | 50 | 1013.5 |
| 20260505062609 | 18 | 225 | 1.6 | 6.4 | 0.00 | 0.00 | 0.00 | 50 | 1013.5 |
| 20260505061609 | 17 | 230 | 1.6 | 4.8 | 0.00 | 0.00 | 0.00 | 51 | 1013.5 |
| 20260505060606 | 17 | 225 | 1.6 | 6.4 | 0.00 | 0.00 | 0.00 | 52 | 1013.5 |
| 20260505055603 | 16 | 227 | 1.6 | 19.3 | 0.00 | 0.00 | 0.00 | 53 | 1013.4 |
| 20260505054602 | 16 | 216 | 1.6 | 3.2 | 0.00 | 0.00 | 0.00 | 55 | 1013.2 |
| 20260505053559 | 15 | 214 | 3.2 | 12.9 | 0.00 | 0.00 | 0.00 | 58 | 1013.1 |
| 20260505052557 | 13 | 227 | 1.6 | 16.1 | 0.00 | 0.00 | 0.00 | 60 | 1013.1 |
| 20260505051556 | 11 | 237 | 1.6 | 17.7 | 0.00 | 0.00 | 0.00 | 61 | 1013.1 |
| 20260505050614 | 11 | 235 | 1.6 | 11.3 | 0.00 | 0.00 | 0.00 | 61 | 1013.2 |
| 20260505041544 | 10 | 215 | 1.6 | 4.8 | 0.00 | 0.00 | 0.00 | 60 | 1013.1 |
| 20260505040622 | 10 | 225 | 1.6 | 29.0 | 0.00 | 0.00 | 0.00 | 59 | 1013.1 |
| 20260505035540 | 10 | 201 | 1.6 | 9.7 | 0.00 | 0.00 | 0.00 | 59 | 1013.0 |
| 20260505034538 | 10 | 206 | 1.6 | 17.7 | 0.00 | 0.00 | 0.00 | 59 | 1013.0 |
| 20260505033615 | 10 | 214 | 1.6 | 9.7 | 0.00 | 0.00 | 0.00 | 59 | 1012.9 |
| 20260505032554 | 10 | 225 | 1.6 | 3.2 | 0.00 | 0.00 | 0.00 | 59 | 1012.9 |
| 20260505031531 | 10 | 213 | 3.2 | 25.7 | 0.00 | 0.00 | 0.00 | 58 | 1012.8 |
| 20260505030530 | 10 | 221 | 1.6 | 4.8 | 0.00 | 0.00 | 0.00 | 58 | 1012.8 |
| 20260505025527 | 10 | 235 | 1.6 | 19.3 | 0.00 | 0.00 | 0.00 | 58 | 1012.8 |
| 20260505024546 | 10 | 240 | 1.6 | 4.8 | 0.00 | 0.00 | 0.00 | 58 | 1012.8 |
| 20260505023523 | 10 | 270 | 1.6 | 6.4 | 0.00 | 0.00 | 0.00 | 58 | 1012.8 |
| 20260505022542 | 10 | 227 | 1.6 | 9.7 | 0.00 | 0.00 | 0.00 | 57 | 1012.8 |
| 20260505021519 | 10 | 210 | 1.6 | 9.7 | 0.00 | 0.00 | 0.00 | 57 | 1012.8 |
| 20260505020517 | 10 | 214 | 1.6 | 9.7 | 0.00 | 0.00 | 0.00 | 57 | 1012.8 |
| 20260505015516 | 10 | 270 | 1.6 | 6.4 | 0.00 | 0.00 | 0.00 | 57 | 1012.7 |
| 20260505014514 | 11 | 211 | 1.6 | 9.7 | 0.00 | 0.00 | 0.00 | 55 | 1012.7 |
| 20260505013511 | 11 | 200 | 1.6 | 9.7 | 0.00 | 0.00 | 0.00 | 55 | 1012.8 |
| 20260505012529 | 11 | 189 | 1.6 | 6.4 | 0.00 | 0.00 | 0.00 | 54 | 1012.7 |
| 20260505011508 | 11 | 225 | 1.6 | 6.4 | 0.00 | 0.00 | 0.00 | 54 | 1012.8 |
| 20260505010546 | 11 | 215 | 1.6 | 3.2 | 0.00 | 0.00 | 0.00 | 54 | 1012.8 |
| 20260505005524 | 11 | 213 | 1.6 | 4.8 | 0.00 | 0.00 | 0.00 | 53 | 1012.7 |
| 20260505004001 | 11 | 181 | 3.2 | 9.7 | 0.00 | 0.00 | 0.00 | 53 | 1012.8 |
| 20260505003019 | 12 | 186 | 3.2 | 19.3 | 0.00 | 0.00 | 0.00 | 53 | 1012.8 |
| 20260505001957 | 12 | 189 | 3.2 | 6.4 | 0.00 | 0.00 | 0.00 | 53 | 1012.8 |
| 20260505000954 | 12 | 193 | 3.2 | 14.5 | 0.00 | 0.00 | 0.00 | 53 | 1012.9 |
| 20260504235953 | 12 | 194 | 3.2 | 6.4 | 0.00 | 0.00 | 0.00 | 52 | 1013.0 |
| 20260504234951 | 12 | 205 | 1.6 | 20.9 | 0.00 | 0.00 | 0.00 | 52 | 1012.9 |
| 20260504233949 | 12 | 190 | 3.2 | 6.4 | 0.00 | 0.00 | 0.00 | 51 | 1013.0 |
| 20260504232947 | 12 | 180 | 3.2 | 9.7 | 0.00 | 0.00 | 0.00 | 51 | 1013.0 |
| 20260504231945 | 12 | 194 | 1.6 | 4.8 | 0.00 | 0.00 | 0.00 | 51 | 1013.1 |
| 20260504230942 | 12 | 187 | 3.2 | 11.3 | 0.00 | 0.00 | 0.00 | 51 | 1013.1 |
| 20260504225941 | 13 | 208 | 1.6 | 4.8 | 0.00 | 0.00 | 0.00 | 51 | 1013.2 |
| 20260504224938 | 13 | 189 | 3.2 | 16.1 | 0.00 | 0.00 | 0.00 | 50 | 1013.1 |
| 20260504223937 | 13 | 193 | 3.2 | 8.0 | 0.00 | 0.00 | 0.00 | 50 | 1013.1 |
| 20260504222935 | 13 | 185 | 3.2 | 14.5 | 0.00 | 0.00 | 0.00 | 50 | 1013.2 |
| 20260504221932 | 13 | 207 | 3.2 | 19.3 | 0.00 | 0.00 | 0.00 | 50 | 1013.2 |
| 20260504220931 | 13 | 206 | 1.6 | 3.2 | 0.00 | 0.00 | 0.00 | 50 | 1013.1 |
| 20260504215928 | 13 | 187 | 3.2 | 8.0 | 0.00 | 0.00 | 0.00 | 50 | 1013.2 |
| 20260504214927 | 14 | 220 | 1.6 | 8.0 | 0.00 | 0.00 | 0.00 | 50 | 1013.2 |
| 20260504213926 | 14 | 217 | 1.6 | 12.9 | 0.00 | 0.00 | 0.00 | 49 | 1013.2 |
| 20260504212943 | 15 | 204 | 3.2 | 8.0 | 0.00 | 0.00 | 0.00 | 49 | 1013.2 |
| 20260504211921 | 15 | 207 | 3.2 | 20.9 | 0.00 | 0.00 | 0.00 | 48 | 1013.2 |
| 20260504210939 | 15 | 198 | 3.2 | 22.5 | 0.00 | 0.00 | 0.00 | 47 | 1013.1 |
| 20260504205917 | 15 | 180 | 3.2 | 17.7 | 0.00 | 0.00 | 0.00 | 47 | 1013.1 |
| 20260504204915 | 15 | 178 | 3.2 | 4.8 | 0.00 | 0.00 | 0.00 | 47 | 1013.1 |
| 20260504203913 | 15 | 188 | 3.2 | 9.7 | 0.00 | 0.00 | 0.00 | 47 | 1013.1 |
| 20260504202910 | 15 | 177 | 3.2 | 17.7 | 0.00 | 0.00 | 0.00 | 47 | 1013.1 |
| 20260504201908 | 16 | 182 | 3.2 | 8.0 | 0.00 | 0.00 | 0.00 | 47 | 1013.2 |
| 20260504200909 | 16 | 189 | 3.2 | 16.1 | 0.00 | 0.00 | 0.00 | 47 | 1013.2 |
| 20260504195906 | 16 | 188 | 3.2 | 9.7 | 0.00 | 0.00 | 0.00 | 47 | 1013.0 |
| 20260504194904 | 16 | 225 | 1.6 | 22.5 | 0.00 | 0.00 | 0.00 | 47 | 1013.0 |
| 20260504193901 | 16 | 201 | 1.6 | 6.4 | 0.00 | 0.00 | 0.00 | 46 | 1013.0 |
| 20260504192859 | 16 | 216 | 1.6 | 3.2 | 0.00 | 0.00 | 0.00 | 46 | 1012.9 |
| 20260504191858 | 17 | 216 | 1.6 | 9.7 | 0.00 | 0.00 | 0.00 | 46 | 1012.9 |
| 20260504190855 | 17 | 202 | 1.6 | 9.7 | 0.00 | 0.00 | 0.00 | 46 | 1012.9 |
| 20260504185852 | 17 | 204 | 3.2 | 17.7 | 0.00 | 0.00 | 0.00 | 45 | 1012.8 |
| 20260504184852 | 17 | 191 | 3.2 | 20.9 | 0.00 | 0.00 | 0.00 | 45 | 1012.8 |
| 20260504183909 | 17 | 194 | 1.6 | 6.4 | 0.00 | 0.00 | 0.00 | 45 | 1012.7 |
| 20260504182847 | 18 | 199 | 1.6 | 3.2 | 0.00 | 0.00 | 0.00 | 45 | 1012.7 |
| 20260504181845 | 18 | 204 | 3.2 | 11.3 | 0.00 | 0.00 | 0.00 | 45 | 1012.5 |
| 20260504180903 | 18 | 225 | 1.6 | 9.7 | 0.00 | 0.00 | 0.00 | 44 | 1012.4 |
| 20260504175841 | 18 | 219 | 1.6 | 3.2 | 0.00 | 0.00 | 0.00 | 43 | 1012.3 |
| 20260504174840 | 19 | 225 | 1.6 | 3.2 | 0.00 | 0.00 | 0.00 | 42 | 1012.2 |
| 20260504173837 | 20 | 225 | 1.6 | 8.0 | 0.00 | 0.00 | 0.00 | 42 | 1012.2 |
| 20260504172835 | 20 | 235 | 1.6 | 9.7 | 0.00 | 0.00 | 0.00 | 41 | 1012.2 |
| 20260504171833 | 21 | 225 | 1.6 | 27.4 | 0.00 | 0.00 | 0.00 | 41 | 1012.2 |
| 20260504170832 | 21 | 225 | 1.6 | 4.8 | 0.00 | 0.00 | 0.00 | 41 | 1012.1 |
| 20260504150807 | 23 | 11 | 3.2 | 8.0 | 0.00 | 0.00 | 0.00 | 36 | 1012.1 |
| 20260504140755 | 23 | 14 | 4.8 | 11.3 | 0.00 | 0.00 | 0.00 | 35 | 1012.5 |
| 20260504130743 | 24 | 17 | 6.4 | 14.5 | 0.00 | 0.00 | 0.00 | 35 | 1012.7 |
| 20260504081744 | 18 | 270 | 3.2 | 9.7 | 0.00 | 0.00 | 0.00 | 52 | 1014.4 |
| 20260504080742 | 18 | 247 | 3.2 | 6.4 | 0.00 | 0.00 | 0.00 | 52 | 1014.4 |